User: anonymous   Login
Location: Camp at the Woods
(43.2055°N, 93.0905°W)
Time: 22:50:58
(UTC+00:00)
Language:

CZ-4B R/B - Orbit

View from above orbital plane
View from above orbital plane
View from above satellite
View from above satellite

Ground track
Ground track

The orbit data is extracted from the following two-line orbital elements,

1 37181U 10051C   24104.59650668  .00006304  00000-0  39470-3 0  9992
2 37181  97.8620 117.4163 0090274 312.2525 162.3405 15.06385856738498
Epoch (UTC): 13 April 2024 14:18:58
Eccentricity: 0.0090274
inclination: 97.8620°
perigee height: 485 km
apogee height: 610 km
right ascension of ascending node: 117.4163°
argument of perigee: 312.2525°
revolutions per day: 15.06385856
mean anomaly at epoch: 162.3405°
orbit number at epoch: 73849

The dashed part of the orbit path shows where the satellite is in the earth's shadow,  

DLR